This demonstration page uses our WeatherBlox Daily Observations layout. Learn more.

Left ArrowRight Arrow

Hourly Observations for November 5, 2015

Temp ( °F °C ) Dew Point ( °F °C ) Humidity (%) Winds ( mph kmh ) Pressure ( in mb ) Visibility ( mi km ) Precip ( " mm )
12:05 am 00:05 Partly Cloudy 59 15 57 14 94 94 SSE 5 7 30.12 1020 10 16 N/A
12:25 am 00:25 Partly Cloudy 57 14 55 13 94 94 SSE 5 7 30.12 1020 10 16 N/A
12:45 am 00:45 Clear 59 15 57 14 94 94 SSE 6 9 30.12 1020 10 16 N/A
1:05 am 01:05 Mostly Cloudy 57 14 57 14 100 100 SSE 3 6 30.12 1020 10 16 N/A
1:25 am 01:25 Cloudy 59 15 57 14 94 94 S 5 7 30.15 1021 10 16 N/A
1:45 am 01:45 Partly Cloudy 59 15 57 14 94 94 S 5 7 30.15 1021 10 16 N/A
2:05 am 02:05 Mostly Cloudy 59 15 57 14 94 94 S 5 7 30.15 1021 10 16 N/A
2:25 am 02:25 Mostly Cloudy 59 15 57 14 94 94 S 6 9 30.15 1021 10 16 N/A
2:45 am 02:45 Mostly Cloudy 59 15 57 14 94 94 S 5 7 30.15 1021 10 16 N/A
3:05 am 03:05 Cloudy 59 15 57 14 94 94 S 5 7 30.15 1021 10 16 N/A
3:25 am 03:25 Cloudy 59 15 57 14 94 94 S 5 7 30.15 1021 10 16 N/A
3:45 am 03:45 Cloudy 59 15 57 14 94 94 S 5 7 30.15 1021 10 16 N/A
4:05 am 04:05 Cloudy 59 15 57 14 94 94 S 6 9 30.15 1021 10 16 N/A
4:25 am 04:25 Cloudy 59 15 57 14 94 94 S 6 9 30.15 1021 10 16 N/A
4:45 am 04:45 Cloudy 61 16 57 14 88 88 S 5 7 30.15 1021 10 16 N/A
5:05 am 05:05 Cloudy 59 15 57 14 94 94 S 5 7 30.15 1021 10 16 N/A
5:25 am 05:25 Cloudy 59 15 57 14 94 94 S 5 7 30.15 1021 10 16 N/A
5:45 am 05:45 Cloudy 59 15 57 14 94 94 S 5 7 30.15 1021 10 16 N/A
6:05 am 06:05 Cloudy 59 15 57 14 94 94 S 6 9 30.15 1021 10 16 N/A
6:25 am 06:25 Cloudy 59 15 57 14 94 94 S 5 7 30.15 1021 10 16 N/A
6:45 am 06:45 Cloudy 59 15 57 14 94 94 S 8 13 30.15 1021 10 16 N/A
7:05 am 07:05 Cloudy 59 15 57 14 94 94 S 6 9 30.15 1021 10 16 N/A
7:25 am 07:25 Cloudy 59 15 57 14 94 94 S 6 9 30.15 1021 10 16 N/A
7:45 am 07:45 Cloudy 59 15 57 14 94 94 S 6 9 30.15 1021 10 16 N/A
8:05 am 08:05 Cloudy 61 16 57 14 88 88 S 7 11 30.18 1022 10 16 N/A
8:25 am 08:25 Cloudy 61 16 59 15 94 94 S 6 9 30.15 1021 10 16 N/A
8:45 am 08:45 Cloudy 61 16 59 15 94 94 SSE 6 9 30.18 1022 10 16 N/A
9:05 am 09:05 Cloudy 61 16 59 15 94 94 S 5 7 30.15 1021 10 16 N/A
9:25 am 09:25 Cloudy 63 17 59 15 88 88 S 7 11 30.15 1021 10 16 N/A
9:45 am 09:45 Cloudy 64 18 61 16 88 88 S 8 13 30.15 1021 10 16 N/A
10:05 am 10:05 Cloudy 64 18 61 16 88 88 S 9 15 30.15 1021 10 16 N/A
10:45 am 10:45 Cloudy 68 20 61 16 78 78 S 9 15 30.15 1021 10 16 N/A
11:05 am 11:05 Mostly Cloudy 68 20 61 16 78 78 S 8 13 30.12 1020 10 16 N/A
11:25 am 11:25 Partly Cloudy 70 21 61 16 73 73 SSW 10 17 30.12 1020 10 16 N/A
11:45 am 11:45 Partly Cloudy 72 22 61 16 69 69 S 14 22 30.09 1019 10 16 N/A
12:05 pm 12:05 Mostly Cloudy 72 22 61 16 69 69 S 13 20 30.09 1019 10 16 N/A
12:25 pm 12:25 Mostly Cloudy 72 22 59 15 65 65 SSW 9 15 30.06 1018 10 16 N/A
12:45 pm 12:45 Partly Cloudy 73 23 61 16 65 65 SSW 13 20 30.06 1018 10 16 N/A
1:05 pm 13:05 Mostly Cloudy 73 23 59 15 61 61 S 15 24 30.03 1017 10 16 N/A
1:25 pm 13:25 Mostly Cloudy 73 23 57 14 57 57 SSW 14 22 30.06 1018 10 16 N/A
1:45 pm 13:45 Mostly Cloudy 73 23 57 14 57 57 SSW 12 19 30.06 1018 10 16 N/A
2:05 pm 14:05 Mostly Cloudy 73 23 54 12 50 50 SSW 17 28 30.03 1017 10 16 N/A
2:25 pm 14:25 Mostly Cloudy 73 23 54 12 50 50 SSW 15 24 30.03 1017 10 16 N/A
2:45 pm 14:45 Mostly Cloudy 73 23 54 12 50 50 SSW 13 20 30.03 1017 10 16 N/A
3:05 pm 15:05 Mostly Cloudy 72 22 54 12 53 53 SSW 13 20 30.03 1017 10 16 N/A
3:25 pm 15:25 Partly Cloudy 72 22 55 13 57 57 SSW 16 26 30.00 1016 10 16 N/A
3:45 pm 15:45 Sunny 72 22 55 13 57 57 SSW 14 22 30.00 1016 10 16 N/A
4:05 pm 16:05 Sunny 70 21 55 13 60 60 S 9 15 29.97 1015 10 16 N/A
4:25 pm 16:25 Mostly Cloudy 68 20 57 14 69 69 SSE 13 20 30.00 1016 10 16 N/A
4:45 pm 16:45 Cloudy 68 20 59 15 73 73 S 10 17 30.00 1016 10 16 N/A
5:05 pm 17:05 Mostly Cloudy 70 21 59 15 69 69 SSW 12 19 30.00 1016 10 16 N/A
5:25 pm 17:25 Mostly Cloudy 68 20 59 15 73 73 S 10 17 30.03 1017 10 16 N/A
5:45 pm 17:45 Mostly Cloudy 68 20 59 15 73 73 S 9 15 30.03 1017 10 16 N/A
6:05 pm 18:05 Mostly Cloudy 68 20 61 16 78 78 S 9 15 30.00 1016 10 16 N/A
6:45 pm 18:45 Mostly Cloudy 64 18 61 16 88 88 S 5 7 30.00 1016 10 16 N/A
7:05 pm 19:05 Partly Cloudy 64 18 61 16 88 88 S 6 9 30.00 1016 10 16 N/A
7:25 pm 19:25 Mostly Cloudy 64 18 61 16 88 88 S 7 11 30.00 1016 10 16 N/A
7:45 pm 19:45 Cloudy 64 18 61 16 88 88 S 7 11 30.00 1016 7 11 N/A
8:05 pm 20:05 Cloudy 64 18 61 16 88 88 S 10 17 30.00 1016 10 16 N/A
8:25 pm 20:25 Cloudy 66 19 61 16 83 83 S 10 17 30.00 1016 10 16 N/A
8:45 pm 20:45 Cloudy 64 18 61 16 88 88 S 9 15 29.97 1015 7 11 N/A
9:05 pm 21:05 Cloudy 64 18 61 16 88 88 S 9 15 29.97 1015 10 16 N/A
9:25 pm 21:25 Cloudy 64 18 61 16 88 88 SSW 9 15 29.97 1015 10 16 N/A
9:45 pm 21:45 Cloudy 64 18 61 16 88 88 S 8 13 29.97 1015 10 16 N/A
10:05 pm 22:05 Cloudy 64 18 61 16 88 88 S 8 13 29.97 1015 10 16 N/A
10:25 pm 22:25 Cloudy 64 18 61 16 88 88 S 8 13 29.94 1014 10 16 N/A
10:45 pm 22:45 Cloudy 64 18 61 16 88 88 S 8 13 29.94 1014 10 16 N/A
11:05 pm 23:05 Cloudy 64 18 61 16 88 88 S 10 17 29.91 1013 10 16 N/A
11:25 pm 23:25 Cloudy 64 18 61 16 88 88 SSW 13 20 29.94 1014 7 11 N/A
11:45 pm 23:45 Cloudy 64 18 61 16 88 88 S 12 19 29.91 1013 10 16 N/A

Powered by Vaisala Xweather